Location: Poprad
(0.0000°N, 20.3000°E)
Time: 19:03:42
(UTC+02:00)

Daily predictions for brighter satellites

Satellite Brightness Start Highest point End
(mag) Time Altitude Azimuth Time Altitude Azimuth Time Altitude Azimuth
Centaur D-1AR AC-48 4.3 17:48:49 10° WSW 17:54:52 73° SSE 18:59:06 10° ENE
ARIANE 5 R/B 4.1 18:01:58 10° W 18:05:39 75° S 18:29:15 10° E
ARIANE 3 DEB 3.2 18:51:01 10° W 18:58:14 83° S 19:01:31 10° E
FENGYUN 3A 4.5 19:07:24 10° S 19:12:38 55° WSW 19:17:50 10° NNW
Cosmos 1544 Rocket 4.2 19:09:00 10° SSW 19:13:14 58° W 19:17:28 10° N
Tsikada Rocket 4.1 19:08:56 10° S 19:14:55 53° E 19:20:52 10° NNE
Ariane Rocket 2.9 19:12:18 10° SSE 19:17:21 77° ENE 19:22:23 10° N
Cosmos 1850 Rocket 3.9 19:13:08 10° N 19:18:17 85° ENE 19:23:29 10° SSE
BREEZE-M (TANK) 1.4 19:15:27 10° SW 19:18:25 80° SE 19:20:18 13° NE
USA 229 DEB 3.6 19:12:09 10° SSW 19:18:41 61° ESE 19:25:11 10° NNE
USA 229 3.6 19:12:15 10° SSW 19:18:47 60° ESE 19:25:17 10° NE
Cosmos 1741 Rocket 4.0 19:14:26 10° N 19:19:45 84° ENE 19:25:04 10° SSE
Cosmos 371 Rocket 4.2 19:18:10 10° SSE 19:22:13 26° ESE 19:26:14 10° NE
Shenzhou-11 Module 4.1 19:22:16 10° WNW 19:24:43 24° SW 19:27:11 10° SSE
Centaur Rocket 3.5 19:23:11 10° W 19:26:38 31° NNW 19:27:59 17° NNE
Cosmos 1842 3.1 19:23:53 10° N 19:27:45 74° E 19:31:39 10° S
DELTA 2 R/B (1) 3.5 19:23:38 10° SW 19:29:10 73° SE 19:33:30 17° NE
GPS 2-14 Rocket1 3.1 19:28:03 10° WSW 19:32:05 59° NNW 19:34:27 22° NE
Cosmos 1697 Rocket 4.2 19:29:38 10° NE 19:32:00 16° ENE 19:32:00 16° ENE
YAOGAN 1 3.2 19:29:24 10° S 19:33:39 59° WSW 19:37:53 10° NNW
Yuri Rocket 3.4 19:27:34 10° WSW 19:33:45 85° SSE 19:36:42 24° ENE
Fermi 3.7 19:32:50 10° NW 19:36:52 64° NNE 19:38:25 34° E
NOSS 3-1 (C) 3.2 19:37:11 10° S 19:42:27 50° ESE 19:45:49 21° NE
GP-B 4.2 19:40:08 10° NNE 19:46:52 18° SSE 19:48:12 10° SSE
BLOCK DM-SL R/B 3.0 19:47:18 10° W 19:48:06 24° W 19:48:06 24° W
Cosmos 1891 Rocket 4.5 19:43:35 10° N 19:50:01 77° E 19:56:26 10° S
Cosmos 1544 4.2 19:50:32 10° SSW 19:54:04 46° W 19:57:37 10° NNW
Cosmos 1513 Rocket 4.5 19:48:48 10° N 19:55:10 87° E 20:01:37 10° S
Cosmos 1464 Rocket 4.0 19:50:12 10° N 19:56:26 82° W 20:02:38 10° S
SL-8 R/B 3.9 19:58:12 10° NNW 20:02:36 52° NE 20:02:36 52° NE
Cosmos 1378 3.4 20:03:42 10° N 20:07:08 65° WNW 20:07:08 65° WNW
Cosmos 1315 Rocket 3.6 20:07:56 10° NNW 20:11:58 54° W 20:16:00 10° S
Ariane H10+ 3.6 20:15:55 10° W 20:18:16 33° W 20:18:16 33° W
BLOCK DM-SL R/B 3.7 20:15:42 10° W 20:20:29 81° S 20:22:01 56° ESE
Envisat 3.1 20:16:35 12° S 20:21:17 73° WSW 20:26:19 10° NNW
CZ-4C R/B 3.7 20:17:16 10° NW 20:25:13 54° WSW 20:33:03 10° S
SPOT 3 Rocket 4.3 20:35:36 33° SSW 20:37:29 49° WSW 20:42:25 10° NNW
Cosmos 2278 4.3 20:37:34 10° NNW 20:42:28 54° WNW 20:42:28 54° WNW
Palapa 6 Rocket 4.5 20:38:16 10° SW 20:43:09 53° SSW 20:43:09 53° SSW
ARIANE 5 R/B 4.1 20:42:54 10° W 20:48:54 30° NW 20:48:54 30° NW
ARIANE 5 R/B 4.1 21:00:18 10° WNW 21:44:35 - E 21:01:23 22° WNW
